This is the latest recevied weather packets stored in our database for station/object W8KJR. If no packets are shown the sender has not sent any weather packets the latest 10 day(s).
| Time | Temp. | Humidity | Pressure | Rain* | Wind** | Luminosity | Snow |
|---|---|---|---|---|---|---|---|
| 1777946792 | 19.44° C | 63% | 1002.3 hPa | 0 mm | - | - | - |
| 1777945887 | 20° C | 60% | 1002.5 hPa | 0 mm | - | - | - |
| 1777944985 | 20° C | 59% | 1002.6 hPa | 0 mm | - | - | - |
| 1777944082 | 20.56° C | 57% | 1002.1 hPa | 0 mm | - | - | - |
| 1777943182 | 20.56° C | 56% | 1002.3 hPa | 0 mm | - | - | - |
| 1777942278 | 20.56° C | 55% | 1002.1 hPa | 0 mm | - | - | - |
| 1777941375 | 21.11° C | 53% | 1001.9 hPa | 0 mm | - | - | - |
| 1777940472 | 21.11° C | 51% | 1002.1 hPa | 0 mm | - | - | - |
| 1777939596 | 22.22° C | 49% | 1002 hPa | 0 mm | - | - | - |
| 1777938666 | 22.78° C | 46% | 1002.2 hPa | 0 mm | - | - | - |
| 1777937761 | 22.78° C | 47% | 1002 hPa | 0 mm | - | - | - |
| 1777936859 | 23.33° C | 46% | 1001.8 hPa | 0 mm | - | - | - |
| 1777935958 | 23.33° C | 47% | 1001.7 hPa | 0 mm | - | - | - |
| 1777935057 | 23.33° C | 47% | 1001.8 hPa | 0 mm | - | - | - |
| 1777934154 | 23.89° C | 47% | 1001.8 hPa | 0 mm | - | - | - |
| 1777933250 | 23.89° C | 47% | 1002 hPa | 0 mm | - | - | - |
| 1777932346 | 25° C | 46% | 1001.9 hPa | 0 mm | - | - | - |
| 1777931443 | 25° C | 46% | 1001.9 hPa | 0 mm | - | - | - |
| 1777930544 | 24.44° C | 48% | 1001.6 hPa | 0 mm | - | - | - |
| 1777929640 | 25° C | 48% | 1001.8 hPa | 0 mm | - | - | - |
| 1777928737 | 24.44° C | 50% | 1002.1 hPa | 0 mm | - | - | - |
| 1777927835 | 23.33° C | 50% | 1002.5 hPa | 0 mm | - | - | - |
| 1777926935 | 24.44° C | 49% | 1002.3 hPa | 0 mm | - | - | - |
| 1777926030 | 23.89° C | 51% | 1002.4 hPa | 0 mm | - | - | - |
| 1777925127 | 25° C | 50% | 1002.4 hPa | 0 mm | - | - | - |
* Rain latest hour (hover to see other rain measurements)
** Current wind speed in m/s (hover to see current wind gust speed)